User: anonymous
Location: Clinton NY
(43.0598°N, 75.3602°W)
Time: 19:47:38
(UTC-04:00)
Language:

Cosmos-2242 - Orbit

View from above orbital plane
View from above orbital plane
View from above satellite
View from above satellite

Ground track
Ground track

The orbit data is extracted from the following two-line orbital elements,

1 22626U 93024A   14245.45968775  .00000620  00000-0  68012-4 0  1837
2 22626 082.5206 281.4135 0018293 257.0526 102.8647 14.86001875154746
Epoch (UTC): 02 September 2014 11:01:57
Eccentricity: 0.0018293
inclination: 82.5206°
perigee height: 597 km
apogee height: 623 km
right ascension of ascending node: 281.4135°
argument of perigee: 257.0526°
revolutions per day: 14.86001875
mean anomaly at epoch: 102.8647°
orbit number at epoch: 15474

The dashed part of the orbit path shows where the satellite is in the earth's shadow,  

DLR